Bradford County (N27)
Towanda, PA
Field Elevation: 730
Lat: 41°44.40N  Long: 76°26.83W
CTAF/Unicom Freq: 123.0000
   
     For Weather-by-Phone, call (570) 265-1024
Weather Advisories
10/30/2014 12:54 Z
Altimeter 30.05" Hg
Wind 270° @ 0 KT
Gusts --
Visibility 10 SM
Ceiling BKN041
Temperature 7° C (45° F)
Dewpoint 2° C (36° F)
Relative Humidity 69%
Density Altitude --
Condensation Altitude 3,200 feet
  Wind and Runways
Indicated Runway = 23
History
 
 
More Info
All DigiWx sites map
NOAA Forecast
 
Airport IQ 5010
(LHV) Lock Haven
(PS81) Robert Packer Hospital
 
about DigiWx
 
FAA Disclaimer: The data displayed is for advisory purposes only and is not to be used for flight planning or operations. For official data, please call (570) 265-1024 to hear the current automated AWOS voice message.
  METAR N27 301254Z AUTO 27000KT 10SM BKN041 07/02 A3005